Hourly Data Report for October 27, 2013

All times are specified in Local Standard Time (LST). Add 1 hour to adjust for Daylight Saving Time where and when it is observed.

POND INLET A
NUNAVUT

72°41'22.000" N
77°58'08.000" W
61.60 m
2403206
71095
YIO

Download Data

Hourly Data (October 2013)
Hourly Data Report for October 27, 2013
Temp Definition
°C
Dew Point Temp Definition
°C
Rel Hum Definition
%
Wind Dir Definition
10's deg

Wind Spd Definition
km/h
Visibility Definition
km
Stn Press Definition
kPa
Hmdx Definition


Wind Chill Definition


Weather Definition


TIME
00:00 Legend Double Dagger -9.4 -12.4 79 14 17 16.1 99.32   -16 LegendNANA
01:00 Legend Double Dagger -9.4 -12.1 81 15 13 16.1 99.27   -15 LegendNANA
02:00 Legend Double Dagger -9.3 -12.0 81 16 11 16.1 99.26   -15 LegendNANA
03:00 Legend Double Dagger -10.4 -13.2 80 16 17 16.1 99.21   -18 LegendNANA
04:00 Legend Double Dagger -9.9 -13.5 75 14 18 16.1 99.16   -17 LegendNANA
05:00 Legend Double Dagger -9.5 -13.8 71 15 24 16.1 99.11   -18 LegendNANA
06:00 Legend Double Dagger -10.1 -12.6 82 14 26 11.3 99.07   -19 LegendNANA
07:00 Legend Double Dagger -9.8 -12.0 84 15 22 4.8 99.07   -18 LegendNANA
08:00 Legend Double Dagger -10.1 -12.8 81 15 21 6.4 99.07   -18 LegendNANA
09:00 Legend Double Dagger -10.3 -12.7 83 15 17 3.2 99.05   -18 LegendNANA
10:00 Legend Double Dagger -10.8 -13.2 83 15 15 9.7 99.04   -18 LegendNANA
11:00 Legend Double Dagger -10.9 -14.0 78 9 8 16.1 99.04   -16 LegendNANA
12:00 Legend Double Dagger -12.2 -15.9 74 13 5 16.1 99.05   -15 LegendNANA
13:00 Legend Double Dagger -13.3 -16.8 75 15 9 16.1 99.07   -19 LegendNANA
14:00 Legend Double Dagger -11.2 -13.8 81   0 16.1 99.08     LegendNANA
15:00 Legend Double Dagger -12.4 -14.6 84 14 13 16.1 99.11   -19 LegendNANA
16:00 Legend Double Dagger -12.4 -16.4 72 16 8 16.1 99.13   -17 LegendNANA
17:00 Legend Double Dagger -12.1 -15.5 76 16 8 16.1 99.16   -17 LegendNANA
18:00 Legend Double Dagger -13.6 -17.0 76 17 8 16.1 99.19   -19 LegendNANA
19:00 Legend Double Dagger -12.6 -16.1 75 LegendMM 4 16.1 99.25   -15 LegendNANA
20:00 Legend Double Dagger -14.1 -17.5 76 16 8 16.1 99.27   -19 LegendNANA
21:00 Legend Double Dagger -11.9 -15.3 76 8 4 16.1 99.31   -14 LegendNANA
22:00 Legend Double Dagger -12.2 -15.5 77   0 16.1 99.33     LegendNANA
23:00 Legend Double Dagger -12.4 -16.5 72 LegendMM 4 16.1 99.38   -15 LegendNANA

Notes on Data Quality.

Legend

  • E = Estimated
  • M = Missing
  • NA = Not Available
  • ‡ = Partner data that is not subject to review by the National Climate Archives
Date modified: